Location: Unspecified
(51.5147°N, 7.4673°E)
Time: 16:15:29
(UTC+01:00)

Transit 4A - Pass Details

Date: 22 February 2026
Orbit: 864 x 977 km, 66.8° (Epoch: 10 March)

Event Time Altitude Azimuth Distance (km) Brightness Sun altitude
Exits shadow 02:11:03 12° 68° (ENE) 2,477 10.5 -45.0°
Drops below altitude 10° 02:11:33 10° 64° (ENE) 2,594 10.7 -45.0°
Sets 02:14:54 0° 47° (NE) 3,564 11.7 -44.7°
